Time,TemperatureF,DewpointF,PressureIn,WindDirection,WindDirectionDegrees,WindSpeedMPH,WindSpeedGustMPH,Humidity,HourlyPrecipIn,Conditions,Clouds,dailyrainin,SoftwareType,DateUTC
2013-04-26 00:06:00,47.4,40.0,30.09,SW,215,0.0,-999.0,76,-99.99,,,0.00,weatherlink.com 1.10,2013-04-26 07:06:00,
2013-04-26 00:21:00,47.0,40.0,30.09,SW,215,0.0,-999.0,78,-99.99,,,0.00,weatherlink.com 1.10,2013-04-26 07:21:00,
2013-04-26 00:36:00,46.4,40.0,30.10,SW,215,0.0,-999.0,79,-99.99,,,0.00,weatherlink.com 1.10,2013-04-26 07:36:00,
2013-04-26 00:51:00,46.2,40.0,30.10,SW,215,0.0,-999.0,79,-99.99,,,0.00,weatherlink.com 1.10,2013-04-26 07:51:00,
2013-04-26 01:06:00,45.7,40.0,30.11,SW,215,0.0,-999.0,80,-99.99,,,0.00,weatherlink.com 1.10,2013-04-26 08:06:00,
2013-04-26 01:21:00,45.4,40.0,30.11,SW,215,0.0,-999.0,80,-99.99,,,0.00,weatherlink.com 1.10,2013-04-26 08:21:00,
2013-04-26 01:36:00,44.8,39.0,30.11,SW,215,0.0,-999.0,81,-99.99,,,0.00,weatherlink.com 1.10,2013-04-26 08:36:00,
2013-04-26 01:51:00,44.4,39.0,30.11,SW,215,0.0,-999.0,82,-99.99,,,0.00,weatherlink.com 1.10,2013-04-26 08:51:00,
2013-04-26 02:06:00,44.1,39.0,30.12,SW,215,0.0,-999.0,83,-99.99,,,0.00,weatherlink.com 1.10,2013-04-26 09:06:00,
2013-04-26 02:21:00,43.8,39.0,30.12,SW,215,0.0,-999.0,83,-99.99,,,0.00,weatherlink.com 1.10,2013-04-26 09:21:00,
2013-04-26 02:36:00,43.3,39.0,30.12,SW,215,0.0,-999.0,84,-99.99,,,0.00,weatherlink.com 1.10,2013-04-26 09:36:00,
2013-04-26 02:51:00,43.0,39.0,30.13,SW,215,0.0,-999.0,85,-99.99,,,0.00,weatherlink.com 1.10,2013-04-26 09:51:00,
2013-04-26 03:06:00,42.6,38.0,30.14,SW,215,0.0,-999.0,85,-99.99,,,0.00,weatherlink.com 1.10,2013-04-26 10:06:00,
2013-04-26 03:21:00,42.2,38.0,30.14,SW,215,0.0,-999.0,85,-99.99,,,0.00,weatherlink.com 1.10,2013-04-26 10:21:00,
2013-04-26 03:37:00,41.9,38.0,30.14,SW,215,0.0,-999.0,86,-99.99,,,0.00,weatherlink.com 1.10,2013-04-26 10:37:00,
2013-04-26 03:52:00,41.7,38.0,30.15,SW,215,0.0,-999.0,87,-99.99,,,0.00,weatherlink.com 1.10,2013-04-26 10:52:00,
2013-04-26 04:07:00,41.4,38.0,30.15,SW,215,0.0,-999.0,87,-99.99,,,0.00,weatherlink.com 1.10,2013-04-26 11:07:00,
2013-04-26 04:22:00,41.1,38.0,30.16,SW,215,0.0,-999.0,87,-99.99,,,0.00,weatherlink.com 1.10,2013-04-26 11:22:00,
2013-04-26 04:37:00,41.0,38.0,30.16,SW,215,0.0,-999.0,88,-99.99,,,0.00,weatherlink.com 1.10,2013-04-26 11:37:00,
2013-04-26 04:52:00,40.8,38.0,30.17,SW,215,0.0,-999.0,88,-99.99,,,0.00,weatherlink.com 1.10,2013-04-26 11:52:00,
2013-04-26 05:07:00,40.7,38.0,30.17,SW,215,0.0,-999.0,88,-99.99,,,0.00,weatherlink.com 1.10,2013-04-26 12:07:00,
2013-04-26 05:22:00,40.4,37.0,30.18,SW,215,0.0,-999.0,88,-99.99,,,0.00,weatherlink.com 1.10,2013-04-26 12:22:00,
2013-04-26 05:37:00,40.0,37.0,30.18,SW,215,0.0,-999.0,89,-99.99,,,0.00,weatherlink.com 1.10,2013-04-26 12:37:00,
2013-04-26 05:52:00,39.9,37.0,30.19,SW,215,1.0,-999.0,89,-99.99,,,0.00,weatherlink.com 1.10,2013-04-26 12:52:00,
2013-04-26 06:07:00,40.0,37.0,30.19,SW,215,0.0,-999.0,89,-99.99,,,0.00,weatherlink.com 1.10,2013-04-26 13:07:00,
2013-04-26 06:22:00,40.2,37.0,30.20,SW,215,0.0,-999.0,89,-99.99,,,0.00,weatherlink.com 1.10,2013-04-26 13:22:00,
2013-04-26 06:37:00,40.5,38.0,30.20,SW,215,0.0,-999.0,89,-99.99,,,0.00,weatherlink.com 1.10,2013-04-26 13:37:00,
2013-04-26 06:52:00,40.9,38.0,30.21,SW,215,0.0,-999.0,88,-99.99,,,0.00,weatherlink.com 1.10,2013-04-26 13:52:00,
2013-04-26 07:07:00,41.3,38.0,30.21,SW,215,0.0,-999.0,88,-99.99,,,0.00,weatherlink.com 1.10,2013-04-26 14:07:00,
2013-04-26 07:22:00,41.8,38.0,30.21,SW,215,0.0,-999.0,86,-99.99,,,0.00,weatherlink.com 1.10,2013-04-26 14:22:00,
2013-04-26 07:37:00,43.3,39.0,30.21,SW,215,0.0,-999.0,86,-99.99,,,0.00,weatherlink.com 1.10,2013-04-26 14:37:00,
2013-04-26 07:52:00,45.9,39.0,30.22,SW,215,0.0,-999.0,78,-99.99,,,0.00,weatherlink.com 1.10,2013-04-26 14:52:00,
2013-04-26 08:07:00,45.8,39.0,30.22,SW,215,1.0,-999.0,78,-99.99,,,0.00,weatherlink.com 1.10,2013-04-26 15:07:00,
2013-04-26 08:22:00,47.6,39.0,30.22,SW,215,0.0,-999.0,73,-99.99,,,0.00,weatherlink.com 1.10,2013-04-26 15:22:00,
2013-04-26 08:37:00,49.0,40.0,30.22,SW,215,1.0,-999.0,71,-99.99,,,0.00,weatherlink.com 1.10,2013-04-26 15:37:00,
2013-04-26 08:52:00,51.4,40.0,30.22,SW,215,0.0,-999.0,65,-99.99,,,0.00,weatherlink.com 1.10,2013-04-26 15:52:00,
2013-04-26 09:07:00,53.5,40.0,30.22,SW,215,0.0,-999.0,61,-99.99,,,0.00,weatherlink.com 1.10,2013-04-26 16:07:00,
2013-04-26 09:22:00,54.3,40.0,30.21,SW,215,0.0,-999.0,58,-99.99,,,0.00,weatherlink.com 1.10,2013-04-26 16:22:00,
2013-04-26 09:37:00,55.9,40.0,30.21,SW,215,0.0,-999.0,55,-99.99,,,0.00,weatherlink.com 1.10,2013-04-26 16:37:00,
2013-04-26 09:52:00,57.8,40.0,30.20,SW,215,2.0,-999.0,51,-99.99,,,0.00,weatherlink.com 1.10,2013-04-26 16:52:00,
2013-04-26 10:07:00,59.8,40.0,30.20,East,96,0.0,-999.0,48,-99.99,,,0.00,weatherlink.com 1.10,2013-04-26 17:07:00,
2013-04-26 10:22:00,61.6,40.0,30.19,East,85,1.0,-999.0,46,-99.99,,,0.00,weatherlink.com 1.10,2013-04-26 17:22:00,
2013-04-26 10:37:00,62.6,40.0,30.19,ESE,113,0.0,-999.0,44,-99.99,,,0.00,weatherlink.com 1.10,2013-04-26 17:37:00,
2013-04-26 10:52:00,64.0,40.0,30.18,South,185,1.0,-999.0,42,-99.99,,,0.00,weatherlink.com 1.10,2013-04-26 17:52:00,
2013-04-26 11:07:00,65.0,42.0,30.18,SSE,164,5.0,-999.0,43,-99.99,,,0.00,weatherlink.com 1.10,2013-04-26 18:07:00,
2013-04-26 11:22:00,66.2,41.0,30.18,ESE,106,0.0,-999.0,40,-99.99,,,0.00,weatherlink.com 1.10,2013-04-26 18:22:00,
2013-04-26 11:37:00,66.8,40.0,30.17,SSE,168,0.0,-999.0,38,-99.99,,,0.00,weatherlink.com 1.10,2013-04-26 18:37:00,
2013-04-26 11:52:00,68.3,40.0,30.16,South,169,1.0,-999.0,36,-99.99,,,0.00,weatherlink.com 1.10,2013-04-26 18:52:00,
2013-04-26 12:07:00,69.3,41.0,30.16,South,169,0.0,-999.0,36,-99.99,,,0.00,weatherlink.com 1.10,2013-04-26 19:07:00,
2013-04-26 12:22:00,69.9,42.0,30.15,SW,222,0.0,-999.0,37,-99.99,,,0.00,weatherlink.com 1.10,2013-04-26 19:22:00,
2013-04-26 12:37:00,71.7,44.0,30.15,SSW,204,2.0,-999.0,37,-99.99,,,0.00,weatherlink.com 1.10,2013-04-26 19:37:00,
2013-04-26 12:53:00,72.4,45.0,30.14,SSW,211,0.0,-999.0,37,-99.99,,,0.00,weatherlink.com 1.10,2013-04-26 19:53:00,
2013-04-26 13:08:00,73.5,43.0,30.14,WSW,247,0.0,-999.0,34,-99.99,,,0.00,weatherlink.com 1.10,2013-04-26 20:08:00,
2013-04-26 13:23:00,74.1,44.0,30.14,SSE,162,4.0,-999.0,34,-99.99,,,0.00,weatherlink.com 1.10,2013-04-26 20:23:00,
2013-04-26 13:38:00,74.8,44.0,30.13,SSW,205,3.0,-999.0,33,-99.99,,,0.00,weatherlink.com 1.10,2013-04-26 20:38:00,
2013-04-26 13:53:00,75.4,43.0,30.13,South,190,3.0,-999.0,31,-99.99,,,0.00,weatherlink.com 1.10,2013-04-26 20:53:00,
2013-04-26 14:08:00,75.1,42.0,30.13,SSW,211,4.0,-999.0,31,-99.99,,,0.00,weatherlink.com 1.10,2013-04-26 21:08:00,
2013-04-26 14:23:00,75.8,43.0,30.12,West,280,1.0,-999.0,31,-99.99,,,0.00,weatherlink.com 1.10,2013-04-26 21:23:00,
2013-04-26 14:38:00,76.0,44.0,30.12,SSW,195,4.0,-999.0,32,-99.99,,,0.00,weatherlink.com 1.10,2013-04-26 21:38:00,
2013-04-26 14:53:00,76.4,42.0,30.11,South,183,3.0,-999.0,29,-99.99,,,0.00,weatherlink.com 1.10,2013-04-26 21:53:00,
2013-04-26 15:08:00,76.6,41.0,30.11,WNW,285,3.0,-999.0,28,-99.99,,,0.00,weatherlink.com 1.10,2013-04-26 22:08:00,
2013-04-26 15:23:00,77.3,41.0,30.10,South,173,1.0,-999.0,27,-99.99,,,0.00,weatherlink.com 1.10,2013-04-26 22:23:00,
2013-04-26 15:38:00,77.4,42.0,30.10,SSW,209,4.0,-999.0,28,-99.99,,,0.00,weatherlink.com 1.10,2013-04-26 22:38:00,
2013-04-26 15:53:00,77.6,41.0,30.09,SSW,206,1.0,-999.0,27,-99.99,,,0.00,weatherlink.com 1.10,2013-04-26 22:53:00,
2013-04-26 16:08:00,78.7,42.0,30.09,SSW,202,2.0,-999.0,27,-99.99,,,0.00,weatherlink.com 1.10,2013-04-26 23:08:00,
2013-04-26 16:23:00,77.9,41.0,30.09,SSW,196,1.0,-999.0,27,-99.99,,,0.00,weatherlink.com 1.10,2013-04-26 23:23:00,
2013-04-26 16:38:00,77.3,43.0,30.08,SW,214,4.0,-999.0,29,-99.99,,,0.00,weatherlink.com 1.10,2013-04-26 23:38:00,
2013-04-26 16:53:00,77.9,43.0,30.07,South,190,1.0,-999.0,29,-99.99,,,0.00,weatherlink.com 1.10,2013-04-26 23:53:00,
2013-04-26 17:08:00,78.3,43.0,30.07,SSW,192,2.0,-999.0,28,-99.99,,,0.00,weatherlink.com 1.10,2013-04-27 00:08:00,
2013-04-26 17:23:00,78.2,44.0,30.07,SSW,207,0.0,-999.0,30,-99.99,,,0.00,weatherlink.com 1.10,2013-04-27 00:23:00,
2013-04-26 17:38:00,77.6,45.0,30.07,South,185,1.0,-999.0,32,-99.99,,,0.00,weatherlink.com 1.10,2013-04-27 00:38:00,
2013-04-26 17:53:00,76.7,45.0,30.07,South,186,1.0,-999.0,33,-99.99,,,0.00,weatherlink.com 1.10,2013-04-27 00:53:00,
2013-04-26 18:08:00,74.6,47.0,30.07,South,186,0.0,-999.0,38,-99.99,,,0.00,weatherlink.com 1.10,2013-04-27 01:08:00,
2013-04-26 18:23:00,73.3,47.0,30.07,South,186,0.0,-999.0,40,-99.99,,,0.00,weatherlink.com 1.10,2013-04-27 01:23:00,
2013-04-26 18:38:00,73.0,47.0,30.07,South,186,0.0,-999.0,40,-99.99,,,0.00,weatherlink.com 1.10,2013-04-27 01:38:00,
2013-04-26 18:53:00,71.4,48.0,30.07,South,186,0.0,-999.0,43,-99.99,,,0.00,weatherlink.com 1.10,2013-04-27 01:53:00,
2013-04-26 19:08:00,70.0,48.0,30.07,South,186,0.0,-999.0,46,-99.99,,,0.00,weatherlink.com 1.10,2013-04-27 02:08:00,
2013-04-26 19:23:00,67.9,47.0,30.07,South,186,0.0,-999.0,48,-99.99,,,0.00,weatherlink.com 1.10,2013-04-27 02:23:00,
2013-04-26 19:38:00,66.6,49.0,30.07,South,186,0.0,-999.0,53,-99.99,,,0.00,weatherlink.com 1.10,2013-04-27 02:38:00,
2013-04-26 19:53:00,65.5,49.0,30.07,South,186,0.0,-999.0,56,-99.99,,,0.00,weatherlink.com 1.10,2013-04-27 02:53:00,
2013-04-26 20:08:00,64.7,49.0,30.08,South,186,0.0,-999.0,57,-99.99,,,0.00,weatherlink.com 1.10,2013-04-27 03:08:00,
2013-04-26 20:23:00,63.5,49.0,30.09,South,186,0.0,-999.0,60,-99.99,,,0.00,weatherlink.com 1.10,2013-04-27 03:23:00,
2013-04-26 20:38:00,61.6,48.0,30.09,South,186,0.0,-999.0,61,-99.99,,,0.00,weatherlink.com 1.10,2013-04-27 03:38:00,
2013-04-26 20:53:00,60.5,48.0,30.10,South,186,0.0,-999.0,64,-99.99,,,0.00,weatherlink.com 1.10,2013-04-27 03:53:00,
2013-04-26 21:08:00,60.0,49.0,30.10,South,186,0.0,-999.0,66,-99.99,,,0.00,weatherlink.com 1.10,2013-04-27 04:08:00,
2013-04-26 21:23:00,58.6,48.0,30.11,South,186,0.0,-999.0,68,-99.99,,,0.00,weatherlink.com 1.10,2013-04-27 04:23:00,
2013-04-26 21:38:00,57.7,48.0,30.11,South,186,0.0,-999.0,69,-99.99,,,0.00,weatherlink.com 1.10,2013-04-27 04:38:00,
2013-04-26 21:54:00,56.9,47.0,30.11,South,186,0.0,-999.0,70,-99.99,,,0.00,weatherlink.com 1.10,2013-04-27 04:54:00,
2013-04-26 22:09:00,56.2,47.0,30.12,South,186,0.0,-999.0,72,-99.99,,,0.00,weatherlink.com 1.10,2013-04-27 05:09:00,
2013-04-26 22:24:00,55.4,47.0,30.12,South,186,0.0,-999.0,73,-99.99,,,0.00,weatherlink.com 1.10,2013-04-27 05:24:00,
2013-04-26 22:39:00,54.8,47.0,30.11,South,186,0.0,-999.0,74,-99.99,,,0.00,weatherlink.com 1.10,2013-04-27 05:39:00,
2013-04-26 22:54:00,54.0,46.0,30.12,South,186,0.0,-999.0,75,-99.99,,,0.00,weatherlink.com 1.10,2013-04-27 05:54:00,
2013-04-26 23:09:00,53.2,46.0,30.12,South,186,0.0,-999.0,77,-99.99,,,0.00,weatherlink.com 1.10,2013-04-27 06:09:00,
2013-04-26 23:24:00,52.8,46.0,30.12,South,186,0.0,-999.0,78,-99.99,,,0.00,weatherlink.com 1.10,2013-04-27 06:24:00,
2013-04-26 23:39:00,52.3,46.0,30.12,South,186,0.0,-999.0,79,-99.99,,,0.00,weatherlink.com 1.10,2013-04-27 06:39:00,
2013-04-26 23:54:00,51.6,46.0,30.13,South,186,0.0,-999.0,80,-99.99,,,0.00,weatherlink.com 1.10,2013-04-27 06:54:00,